This is the latest recevied weather packets stored in our database for station/object KN6ETB-1. If no packets are shown the sender has not sent any weather packets the latest 10 day(s).
| Time | Temp. | Humidity | Pressure | Rain* | Wind** | Luminosity | Snow |
|---|---|---|---|---|---|---|---|
| 1777925286 | 17.22° C | 63% | 1012.5 hPa | 0 mm | - | 241 W/m² | - |
| 1777924982 | 17.22° C | 62% | 1012.4 hPa | 0 mm | - | 262 W/m² | - |
| 1777924678 | 16.67° C | 65% | 1012.6 hPa | 0 mm | - | 269 W/m² | - |
| 1777924374 | 16.67° C | 64% | 1012.5 hPa | 0 mm | - | 257 W/m² | - |
| 1777924071 | 16.67° C | 63% | 1012.5 hPa | 0 mm | - | 240 W/m² | - |
| 1777923767 | 16.67° C | 63% | 1012.6 hPa | 0 mm | - | 222 W/m² | - |
| 1777923463 | 16.67° C | 63% | 1012.7 hPa | 0 mm | - | 199 W/m² | - |
| 1777923161 | 16.67° C | 64% | 1012.5 hPa | 0 mm | - | 204 W/m² | - |
| 1777922859 | 16.67° C | 65% | 1012.7 hPa | 0 mm | - | 223 W/m² | - |
| 1777922557 | 16.67° C | 64% | 1012.7 hPa | 0 mm | - | 218 W/m² | - |
| 1777922256 | 16.67° C | 63% | 1012.6 hPa | 0 mm | - | 210 W/m² | - |
| 1777921952 | 16.67° C | 63% | 1012.7 hPa | 0 mm | - | 190 W/m² | - |
| 1777921647 | 16.67° C | 64% | 1012.4 hPa | 0 mm | - | 180 W/m² | - |
| 1777921344 | 16.67° C | 64% | 1012.7 hPa | 0 mm | - | 182 W/m² | - |
| 1777921041 | 16.67° C | 65% | 1012.7 hPa | 0 mm | - | 177 W/m² | - |
| 1777920738 | 17.22° C | 64% | 1012.6 hPa | 0 mm | - | 162 W/m² | - |
| 1777920434 | 16.67° C | 64% | 1012.7 hPa | 0 mm | - | 156 W/m² | - |
| 1777920129 | 16.67° C | 65% | 1012.7 hPa | 0 mm | - | 150 W/m² | - |
| 1777919826 | 16.67° C | 65% | 1012.8 hPa | 0 mm | - | 152 W/m² | - |
| 1777919523 | 16.67° C | 66% | 1012.5 hPa | 0 mm | - | 163 W/m² | - |
| 1777919221 | 16.67° C | 67% | 1012.6 hPa | 0 mm | - | 177 W/m² | - |
| 1777918918 | 16.67° C | 68% | 1012.5 hPa | 0 mm | - | 200 W/m² | - |
| 1777918615 | 16.67° C | 66% | 1012.6 hPa | 0 mm | - | 179 W/m² | - |
| 1777918313 | 16.67° C | 66% | 1012.4 hPa | 0 mm | - | 177 W/m² | - |
| 1777918012 | 16.67° C | 65% | 1012.7 hPa | 0 mm | - | 147 W/m² | - |
* Rain latest hour (hover to see other rain measurements)
** Current wind speed in m/s (hover to see current wind gust speed)